Location: Unspecified
(50.1700°N, 6.8600°E)
Time: 13:06:50
(UTC+00:00)

DMSP B5D1-3 - Pass Details

Date: 24 January 2019
Orbit: 767 x 781 km, 98.6° (Epoch: 22 February)

Event Time Altitude Azimuth Distance (km) Brightness Sun altitude
Rises 05:06:31 0° 166° (SSE) 3,239 8.0 -20.7°
Reaches altitude 10° 05:08:49 10° 167° (SSE) 2,314 7.2 -20.3°
Maximum altitude 05:13:56 82° 255° (WSW) 785 4.4 -19.5°
Drops below altitude 10° 05:19:04 10° 344° (NNW) 2,323 6.8 -18.7°
Enters shadow 05:21:11 - 345° (NNW) 3,176 7.5 -18.4°
